QPF
0.00 0.00 0.00 0.00 0.01 0.01 0.01 0.01 0.01 0.01 0.01 0.01 0.01 0.01 0.01 0.01 0.01 0.01 0.01 0.01 0.01 0.02 0.02 0.02 0.03 0.04 0.03 0.02 0.02 0.02 0.02 0.01 0.01 0.01 0.01 0.01 0.01 0.01 0.01 0.01 0.02 0.01 0.01
0.00 0.00 0.00 0.00 0.01 0.01 0.01 0.01 0.01 0.00 0.00 0.01 0.01 0.01 0.01 0.00 0.00 0.01 0.01 0.01 0.01 0.02 0.02 0.02 0.03 0.04 0.03 0.02 0.02 0.02 0.01 0.01 0.00 0.00 0.00 0.01 0.01 0.01 0.01 0.01 0.02 0.02 0.02
0.00 0.00 0.00 0.00 0.01 0.01 0.01 0.01 0.01 0.00 0.00 0.01 0.01 0.01 0.00 0.00 0.00 0.00 0.01 0.01 0.01 0.02 0.02 0.02 0.02 0.03 0.03 0.02 0.02 0.01 0.01 0.00 0.00 0.00 0.01 0.01 0.01 0.01 0.00 0.01 0.01 0.02 0.02
0.00 0.00 0.00 0.01 0.01 0.01 0.01 0.01 0.01 0.00 0.01 0.01 0.01 0.01 0.01 0.01 0.01 0.01 0.01 0.01 0.01 0.03 0.03 0.02 0.02 0.02 0.03 0.02 0.01 0.01 0.00 0.00 0.00 0.00 0.01 0.01 0.02 0.02 0.02 0.01 0.01 0.02 0.01
0.00 0.00 0.00 0.00 0.01 0.01 0.00 0.01 0.01 0.01 0.01 0.01 0.01 0.01 0.00 0.01 0.01 0.01 0.00 0.01 0.01 0.01 0.01 0.01 0.02 0.02 0.02 0.01 0.01 0.01 0.01 0.00 0.00 0.00 0.01 0.01 0.02 0.02 0.02 0.01 0.01 0.01 0.01
0.00 0.00 0.00 0.00 0.01 0.01 0.01 0.01 0.01 0.01 0.01 0.01 0.01 0.01 0.01 0.01 0.01 0.00 0.00 0.00 0.00 0.01 0.01 0.01 0.02 0.02 0.01 0.01 0.01 0.01 0.01 0.00 0.00 0.00 0.01 0.01 0.01 0.01 0.01 0.01 0.01 0.02 0.01
0.00 0.00 0.00 0.00 0.01 0.02 0.01 0.01 0.01 0.01 0.02 0.02 0.02 0.02 0.02 0.01 0.01 0.00 0.00 0.00 0.01 0.00 0.00 0.01 0.02 0.01 0.00 0.00 0.00 0.01 0.01 0.00 0.00 0.00 0.01 0.01 0.01 0.01 0.01 0.01 0.01 0.01 0.01
0.00 0.00 0.00 0.01 0.01 0.02 0.02 0.01 0.01 0.01 0.01 0.01 0.02 0.02 0.02 0.01 0.01 0.00 0.00 0.00 0.00 0.00 0.00 0.00 0.01 0.00 0.00 0.00 0.00 0.00 0.00 0.00 0.00 0.01 0.01 0.01 0.00 0.01 0.01 0.01 0.01 0.01 0.01
0.00 0.00 0.01 0.01 0.01 0.01 0.01 0.01 0.01 0.01 0.01 0.01 0.01 0.01 0.01 0.01 0.01 0.01 0.00 0.00 0.00 0.00 0.00 0.00 0.01 0.01 0.00 0.00 0.00 0.00 0.00 0.00 0.01 0.01 0.01 0.01 0.00 0.01 0.01 0.01 0.01 0.01 0.01
0.01 0.01 0.01 0.02 0.02 0.02 0.02 0.01 0.01 0.01 0.01 0.01 0.01 0.01 0.00 0.01 0.01 0.01 0.00 0.00 0.00 0.00 0.00 0.00 0.00 0.00 0.00 0.00 0.00 0.00 0.00 0.00 0.01 0.01 0.01 0.00 0.00 0.01 0.01 0.00 0.00 0.00 0.00
0.01 0.01 0.02 0.03 0.03 0.03 0.03 0.02 0.01 0.01 0.01 0.01 0.00 0.00 0.00 0.01 0.01 0.00 0.00 0.00 0.00 0.00 0.00 0.00 0.00 0.00 0.00 0.00 0.00 0.00 0.00 0.01 0.00 0.00 0.00 0.00 0.00 0.00 0.01 0.01 0.00 0.00 0.00
0.01 0.01 0.01 0.02 0.02 0.02 0.03 0.03 0.02 0.01 0.01 0.01 0.01 0.00 0.02 0.03 0.03 0.02 0.01 0.01 0.00 0.00 0.00 0.00 0.00 0.00 0.01 0.01 0.00 0.00 0.01 0.01 0.01 0.00 0.00 0.00 0.00 0.01 0.01 0.01 0.00 0.00 0.01
0.01 0.01 0.01 0.01 0.01 0.02 0.02 0.03 0.04 0.04 0.03 0.03 0.03 0.02 0.02 0.04 0.03 0.04 0.03 0.02 0.01 0.01 0.01 0.01 0.01 0.01 0.01 0.01 0.00 0.00 0.00 0.00 0.00 0.00 0.00 0.00 0.00 0.01 0.01 0.00 0.00 0.01 0.01
0.01 0.01 0.01 0.01 0.02 0.02 0.02 0.02 0.03 0.03 0.04 0.04 0.05 0.06 0.06 0.05 0.03 0.03 0.03 0.02 0.03 0.03 0.04 0.04 0.03 0.02 0.01 0.00 0.00 0.00 0.00 0.00 0.00 0.00 0.00 0.00 0.00 0.01 0.00 0.01 0.00 0.01 0.01
0.01 0.02 0.02 0.01 0.02 0.02 0.02 0.01 0.02 0.03 0.03 0.03 0.04 0.04 0.06 0.06 0.05 0.04 0.04 0.05 0.04 0.03 0.03 0.03 0.03 0.02 0.02 0.02 0.01 0.00 0.00 0.00 0.00 0.00 0.00 0.00 0.00 0.00 0.01 0.02 0.02 0.01 0.01
0.02 0.02 0.04 0.03 0.02 0.02 0.01 0.01 0.02 0.02 0.02 0.03 0.03 0.02 0.02 0.03 0.04 0.03 0.03 0.03 0.04 0.05 0.05 0.03 0.03 0.04 0.03 0.03 0.03 0.01 0.01 0.00 0.00 0.00 0.00 0.00 0.00 0.00 0.00 0.01 0.01 0.03 0.03
0.01 0.03 0.05 0.04 0.02 0.03 0.02 0.01 0.01 0.01 0.01 0.02 0.02 0.02 0.02 0.02 0.03 0.05 0.04 0.03 0.03 0.04 0.05 0.05 0.04 0.04 0.03 0.03 0.03 0.03 0.02 0.01 0.01 0.01 0.01 0.00 0.00 0.00 0.00 0.00 0.00 0.01 0.02
0.01 0.03 0.04 0.03 0.03 0.04 0.03 0.03 0.01 0.01 0.01 0.01 0.01 0.01 0.02 0.02 0.02 0.03 0.03 0.03 0.03 0.02 0.03 0.04 0.04 0.04 0.03 0.03 0.03 0.03 0.03 0.03 0.02 0.01 0.01 0.00 0.01 0.00 0.00 0.00 0.00 0.01 0.01
0.01 0.02 0.04 0.03 0.03 0.04 0.04 0.04 0.02 0.02 0.02 0.01 0.01 0.01 0.01 0.01 0.01 0.02 0.02 0.02 0.01 0.01 0.02 0.02 0.01 0.01 0.02 0.03 0.03 0.03 0.03 0.03 0.02 0.02 0.01 0.01 0.01 0.01 0.00 0.00 0.00 0.00 0.01
0.01 0.01 0.02 0.04 0.05 0.05 0.04 0.04 0.03 0.02 0.01 0.01 0.01 0.01 0.01 0.01 0.00 0.00 0.00 0.00 0.00 0.01 0.01 0.01 0.01 0.01 0.01 0.02 0.02 0.02 0.02 0.02 0.02 0.02 0.01 0.01 0.01 0.01 0.01 0.01 0.01 0.00 0.00
0.01 0.02 0.02 0.02 0.05 0.05 0.06 0.05 0.03 0.02 0.01 0.01 0.01 0.01 0.01 0.01 0.00 0.00 0.00 0.00 0.00 0.00 0.00 0.01 0.01 0.01 0.01 0.01 0.01 0.01 0.01 0.01 0.01 0.01 0.01 0.01 0.02 0.01 0.01 0.01 0.01 0.01 0.00
0.02 0.02 0.02 0.03 0.03 0.04 0.05 0.06 0.05 0.03 0.02 0.02 0.01 0.01 0.01 0.00 0.00 0.00 0.00 0.00 0.00 0.00 0.00 0.00 0.01 0.01 0.01 0.01 0.01 0.01 0.01 0.01 0.01 0.00 0.00 0.01 0.00 0.00 0.01 0.00 0.00 0.00 0.00
0.02 0.02 0.02 0.03 0.03 0.04 0.04 0.05 0.06 0.08 0.06 0.04 0.02 0.01 0.01 0.00 0.00 0.00 0.00 0.00 0.00 0.00 0.00 0.00 0.00 0.01 0.01 0.02 0.02 0.02 0.02 0.01 0.01 0.01 0.00 0.00 0.00 0.00 0.00 0.00 0.00 0.00 0.00
0.01 0.02 0.02 0.03 0.03 0.03 0.03 0.03 0.03 0.04 0.06 0.06 0.05 0.03 0.02 0.01 0.01 0.01 0.00 0.00 0.01 0.01 0.01 0.00 0.00 0.00 0.01 0.01 0.01 0.02 0.02 0.02 0.02 0.01 0.01 0.01 0.01 0.01 0.01 0.01 0.00 0.00 0.00
0.02 0.01 0.02 0.03 0.04 0.03 0.03 0.03 0.03 0.02 0.02 0.02 0.02 0.02 0.02 0.01 0.01 0.01 0.00 0.00 0.00 0.01 0.01 0.01 0.01 0.00 0.01 0.01 0.01 0.01 0.02 0.02 0.02 0.02 0.02 0.01 0.01 0.01 0.01 0.01 0.01 0.00 0.00
0.02 0.01 0.01 0.03 0.03 0.03 0.03 0.03 0.03 0.03 0.02 0.01 0.01 0.01 0.00 0.01 0.01 0.00 0.00 0.00 0.00 0.01 0.01 0.01 0.01 0.01 0.02 0.01 0.01 0.01 0.02 0.02 0.03 0.03 0.02 0.02 0.02 0.02 0.02 0.02 0.01 0.01 0.01
MSLP
1012.74 1012.61 1012.57 1012.68 1012.91 1013.25 1013.63 1013.97 1014.25 1014.44 1014.56 1014.66 1014.79 1014.98 1015.24 1015.57 1015.94 1016.29 1016.59 1016.83 1016.98 1017.08 1017.14 1017.19 1017.25 1017.33 1017.41 1017.49 1017.55 1017.59 1017.59 1017.58 1017.56 1017.56 1017.57 1017.59 1017.62 1017.64 1017.63 1017.60 1017.55 1017.49 1017.45
1012.59 1012.61 1012.73 1012.97 1013.32 1013.72 1014.11 1014.44 1014.67 1014.81 1014.89 1014.98 1015.11 1015.32 1015.62 1015.98 1016.37 1016.73 1017.02 1017.22 1017.34 1017.41 1017.45 1017.50 1017.56 1017.64 1017.73 1017.80 1017.85 1017.87 1017.85 1017.83 1017.81 1017.81 1017.84 1017.90 1017.96 1018.01 1018.03 1018.01 1017.95 1017.88 1017.80
1012.39 1012.55 1012.82 1013.20 1013.66 1014.14 1014.56 1014.88 1015.09 1015.20 1015.26 1015.33 1015.47 1015.69 1016.01 1016.38 1016.75 1017.09 1017.34 1017.51 1017.61 1017.65 1017.69 1017.74 1017.82 1017.92 1018.02 1018.10 1018.14 1018.13 1018.09 1018.05 1018.02 1018.03 1018.09 1018.18 1018.28 1018.37 1018.42 1018.42 1018.37 1018.29 1018.20
1012.17 1012.45 1012.85 1013.36 1013.92 1014.47 1014.93 1015.27 1015.47 1015.57 1015.63 1015.70 1015.84 1016.07 1016.38 1016.73 1017.08 1017.38 1017.59 1017.73 1017.80 1017.84 1017.89 1017.96 1018.07 1018.21 1018.32 1018.41 1018.44 1018.41 1018.35 1018.28 1018.24 1018.26 1018.33 1018.44 1018.57 1018.69 1018.77 1018.80 1018.76 1018.69 1018.60
1011.99 1012.34 1012.84 1013.45 1014.10 1014.71 1015.21 1015.57 1015.79 1015.90 1015.96 1016.04 1016.19 1016.42 1016.72 1017.05 1017.36 1017.62 1017.80 1017.90 1017.96 1018.01 1018.09 1018.21 1018.36 1018.53 1018.67 1018.76 1018.78 1018.74 1018.65 1018.56 1018.50 1018.50 1018.57 1018.70 1018.85 1018.99 1019.09 1019.13 1019.12 1019.06 1018.98
1011.88 1012.28 1012.84 1013.51 1014.21 1014.86 1015.40 1015.78 1016.02 1016.15 1016.24 1016.34 1016.51 1016.75 1017.04 1017.35 1017.63 1017.85 1018.00 1018.09 1018.15 1018.22 1018.34 1018.50 1018.70 1018.90 1019.06 1019.16 1019.17 1019.10 1018.99 1018.87 1018.79 1018.78 1018.85 1018.97 1019.12 1019.27 1019.38 1019.43 1019.43 1019.39 1019.32
1011.89 1012.30 1012.88 1013.57 1014.29 1014.96 1015.51 1015.91 1016.17 1016.34 1016.46 1016.60 1016.79 1017.04 1017.33 1017.63 1017.89 1018.09 1018.22 1018.31 1018.39 1018.49 1018.64 1018.84 1019.07 1019.30 1019.47 1019.56 1019.56 1019.48 1019.35 1019.21 1019.12 1019.10 1019.16 1019.27 1019.42 1019.55 1019.65 1019.70 1019.70 1019.67 1019.62
1012.02 1012.42 1012.99 1013.67 1014.38 1015.04 1015.58 1015.99 1016.27 1016.46 1016.62 1016.80 1017.02 1017.30 1017.60 1017.90 1018.16 1018.35 1018.49 1018.59 1018.68 1018.81 1018.98 1019.20 1019.44 1019.67 1019.84 1019.92 1019.90 1019.81 1019.67 1019.54 1019.45 1019.44 1019.50 1019.61 1019.74 1019.86 1019.94 1019.97 1019.96 1019.92 1019.89
1012.26 1012.63 1013.16 1013.81 1014.49 1015.11 1015.64 1016.04 1016.33 1016.54 1016.74 1016.95 1017.21 1017.52 1017.84 1018.15 1018.42 1018.62 1018.77 1018.88 1018.99 1019.13 1019.31 1019.52 1019.75 1019.96 1020.10 1020.16 1020.13 1020.03 1019.91 1019.81 1019.75 1019.76 1019.84 1019.97 1020.09 1020.20 1020.25 1020.26 1020.22 1020.18 1020.15
1012.56 1012.90 1013.39 1013.99 1014.61 1015.19 1015.68 1016.06 1016.35 1016.58 1016.80 1017.05 1017.34 1017.67 1018.02 1018.35 1018.63 1018.86 1019.02 1019.15 1019.27 1019.41 1019.58 1019.77 1019.96 1020.12 1020.22 1020.25 1020.21 1020.13 1020.04 1019.98 1019.98 1020.05 1020.17 1020.32 1020.46 1020.56 1020.59 1020.57 1020.51 1020.45 1020.42
1012.87 1013.18 1013.62 1014.17 1014.73 1015.26 1015.70 1016.06 1016.33 1016.57 1016.81 1017.07 1017.39 1017.74 1018.11 1018.46 1018.77 1019.02 1019.20 1019.35 1019.48 1019.61 1019.75 1019.90 1020.03 1020.14 1020.19 1020.19 1020.15 1020.09 1020.05 1020.06 1020.13 1020.27 1020.46 1020.65 1020.81 1020.91 1020.94 1020.90 1020.82 1020.74 1020.70
1013.13 1013.41 1013.82 1014.30 1014.81 1015.28 1015.68 1016.00 1016.27 1016.50 1016.74 1017.02 1017.34 1017.71 1018.09 1018.46 1018.78 1019.06 1019.27 1019.44 1019.57 1019.70 1019.81 1019.91 1020.00 1020.05 1020.06 1020.03 1019.98 1019.95 1019.97 1020.05 1020.20 1020.42 1020.68 1020.92 1021.12 1021.23 1021.27 1021.22 1021.14 1021.04 1020.98
1013.28 1013.54 1013.92 1014.37 1014.82 1015.24 1015.60 1015.89 1016.14 1016.36 1016.60 1016.87 1017.20 1017.56 1017.95 1018.33 1018.67 1018.97 1019.21 1019.40 1019.56 1019.68 1019.78 1019.85 1019.89 1019.89 1019.87 1019.82 1019.78 1019.78 1019.85 1019.99 1020.21 1020.50 1020.82 1021.11 1021.34 1021.48 1021.53 1021.50 1021.42 1021.33 1021.27
1013.31 1013.56 1013.91 1014.32 1014.73 1015.12 1015.45 1015.72 1015.95 1016.16 1016.39 1016.66 1016.97 1017.32 1017.70 1018.08 1018.44 1018.76 1019.04 1019.27 1019.44 1019.58 1019.68 1019.74 1019.76 1019.74 1019.70 1019.65 1019.62 1019.65 1019.75 1019.93 1020.20 1020.53 1020.88 1021.20 1021.46 1021.63 1021.71 1021.70 1021.65 1021.58 1021.54
1013.20 1013.45 1013.78 1014.16 1014.54 1014.91 1015.22 1015.49 1015.72 1015.93 1016.15 1016.40 1016.70 1017.03 1017.40 1017.77 1018.14 1018.48 1018.79 1019.05 1019.27 1019.44 1019.57 1019.64 1019.66 1019.65 1019.61 1019.57 1019.56 1019.60 1019.72 1019.92 1020.21 1020.54 1020.89 1021.22 1021.49 1021.67 1021.78 1021.81 1021.80 1021.77 1021.76
1012.97 1013.21 1013.52 1013.89 1014.26 1014.62 1014.94 1015.22 1015.46 1015.68 1015.91 1016.15 1016.43 1016.74 1017.09 1017.45 1017.81 1018.17 1018.51 1018.81 1019.07 1019.29 1019.45 1019.56 1019.61 1019.63 1019.61 1019.60 1019.61 1019.66 1019.79 1019.98 1020.25 1020.56 1020.88 1021.18 1021.43 1021.62 1021.75 1021.83 1021.86 1021.89 1021.93
1012.66 1012.89 1013.19 1013.54 1013.91 1014.28 1014.62 1014.93 1015.20 1015.45 1015.69 1015.93 1016.20 1016.49 1016.81 1017.15 1017.51 1017.87 1018.22 1018.56 1018.86 1019.12 1019.33 1019.49 1019.60 1019.66 1019.69 1019.71 1019.75 1019.82 1019.94 1020.11 1020.34 1020.59 1020.86 1021.11 1021.34 1021.52 1021.66 1021.77 1021.86 1021.95 1022.04
1012.32 1012.54 1012.83 1013.16 1013.54 1013.92 1014.29 1014.63 1014.95 1015.23 1015.50 1015.75 1016.01 1016.28 1016.58 1016.90 1017.24 1017.60 1017.96 1018.32 1018.65 1018.95 1019.21 1019.41 1019.57 1019.69 1019.78 1019.85 1019.92 1020.02 1020.14 1020.29 1020.47 1020.66 1020.86 1021.06 1021.24 1021.39 1021.54 1021.68 1021.82 1021.96 1022.10
1012.03 1012.22 1012.48 1012.80 1013.16 1013.55 1013.95 1014.34 1014.70 1015.02 1015.31 1015.59 1015.84 1016.10 1016.38 1016.68 1017.00 1017.35 1017.71 1018.07 1018.42 1018.74 1019.03 1019.28 1019.49 1019.67 1019.82 1019.95 1020.07 1020.20 1020.33 1020.47 1020.62 1020.76 1020.90 1021.03 1021.16 1021.30 1021.43 1021.59 1021.75 1021.94 1022.13
1011.86 1012.01 1012.22 1012.50 1012.83 1013.22 1013.62 1014.04 1014.43 1014.79 1015.11 1015.40 1015.66 1015.91 1016.18 1016.46 1016.76 1017.09 1017.44 1017.79 1018.14 1018.48 1018.79 1019.07 1019.32 1019.55 1019.76 1019.95 1020.13 1020.30 1020.47 1020.61 1020.74 1020.86 1020.95 1021.04 1021.13 1021.23 1021.36 1021.51 1021.70 1021.90 1022.12
1011.86 1011.95 1012.09 1012.30 1012.59 1012.93 1013.33 1013.74 1014.14 1014.51 1014.85 1015.14 1015.41 1015.66 1015.91 1016.17 1016.47 1016.78 1017.11 1017.46 1017.80 1018.13 1018.45 1018.75 1019.03 1019.30 1019.57 1019.82 1020.06 1020.29 1020.49 1020.67 1020.81 1020.92 1021.00 1021.06 1021.13 1021.21 1021.32 1021.47 1021.65 1021.86 1022.09
1012.09 1012.10 1012.15 1012.26 1012.46 1012.74 1013.07 1013.44 1013.82 1014.18 1014.50 1014.79 1015.04 1015.29 1015.53 1015.79 1016.08 1016.39 1016.71 1017.05 1017.38 1017.71 1018.03 1018.34 1018.64 1018.94 1019.24 1019.54 1019.84 1020.13 1020.38 1020.60 1020.77 1020.90 1020.98 1021.05 1021.11 1021.18 1021.28 1021.42 1021.60 1021.82 1022.04
1012.57 1012.48 1012.41 1012.40 1012.49 1012.65 1012.90 1013.19 1013.50 1013.80 1014.09 1014.34 1014.57 1014.80 1015.04 1015.29 1015.58 1015.89 1016.22 1016.55 1016.89 1017.22 1017.53 1017.84 1018.15 1018.47 1018.80 1019.14 1019.48 1019.81 1020.12 1020.38 1020.59 1020.75 1020.86 1020.95 1021.02 1021.10 1021.21 1021.36 1021.54 1021.75 1021.97
1013.27 1013.07 1012.87 1012.74 1012.68 1012.72 1012.84 1013.02 1013.23 1013.44 1013.65 1013.84 1014.03 1014.23 1014.45 1014.70 1014.98 1015.30 1015.64 1015.98 1016.33 1016.66 1016.98 1017.29 1017.61 1017.93 1018.27 1018.63 1019.00 1019.36 1019.70 1019.99 1020.24 1020.44 1020.59 1020.71 1020.82 1020.94 1021.07 1021.24 1021.44 1021.66 1021.89
1014.14 1013.83 1013.52 1013.25 1013.06 1012.96 1012.94 1012.99 1013.07 1013.17 1013.27 1013.38 1013.50 1013.64 1013.83 1014.06 1014.34 1014.66 1015.00 1015.36 1015.71 1016.05 1016.38 1016.70 1017.01 1017.34 1017.68 1018.04 1018.42 1018.78 1019.13 1019.45 1019.73 1019.96 1020.16 1020.33 1020.49 1020.65 1020.84 1021.05 1021.29 1021.55 1021.80
1015.09 1014.69 1014.28 1013.90 1013.59 1013.37 1013.22 1013.13 1013.08 1013.05 1013.04 1013.04 1013.07 1013.13 1013.26 1013.45 1013.70 1014.00 1014.34 1014.70 1015.06 1015.41 1015.74 1016.06 1016.38 1016.71 1017.04 1017.39 1017.75 1018.11 1018.45 1018.78 1019.07 1019.33 1019.57 1019.79 1020.02 1020.26 1020.52 1020.80 1021.10 1021.42 1021.72
Thickness
5773 5772 5769 5767 5765 5764 5762 5760 5758 5756 5755 5754 5753 5752 5750 5749 5748 5747 5746 5746 5745 5744 5743 5742 5741 5740 5739 5737 5736 5735 5734 5733 5732 5732 5731 5730 5729 5729 5728 5727 5727 5726 5725
5777 5771 5767 5765 5763 5761 5759 5757 5755 5754 5752 5751 5750 5749 5748 5747 5745 5745 5744 5743 5742 5741 5740 5739 5738 5737 5735 5734 5733 5732 5731 5730 5729 5729 5728 5727 5726 5726 5725 5724 5723 5722 5721
5775 5769 5765 5763 5761 5759 5757 5755 5753 5751 5750 5748 5747 5746 5745 5744 5743 5742 5741 5740 5739 5738 5737 5736 5734 5733 5732 5731 5729 5729 5728 5727 5727 5726 5725 5724 5723 5722 5721 5720 5719 5718 5717
5773 5767 5763 5760 5758 5756 5754 5752 5750 5748 5747 5745 5744 5743 5742 5741 5740 5739 5738 5737 5736 5734 5733 5732 5731 5730 5728 5727 5726 5725 5725 5725 5725 5724 5723 5721 5720 5719 5717 5716 5715 5714 5713
5769 5764 5760 5757 5755 5753 5751 5749 5747 5745 5744 5742 5741 5739 5738 5737 5736 5735 5734 5733 5732 5731 5730 5729 5727 5726 5725 5723 5723 5722 5722 5722 5721 5721 5719 5718 5716 5715 5714 5712 5711 5710 5709
5764 5760 5755 5753 5751 5749 5747 5745 5744 5742 5740 5739 5737 5736 5735 5734 5733 5732 5731 5730 5728 5727 5726 5725 5723 5722 5721 5720 5719 5718 5718 5718 5718 5717 5715 5713 5711 5710 5709 5708 5707 5706 5705
5759 5755 5751 5749 5747 5745 5743 5742 5740 5738 5737 5735 5734 5733 5731 5730 5729 5728 5727 5725 5724 5723 5722 5721 5720 5718 5717 5716 5715 5714 5714 5714 5714 5713 5711 5709 5707 5706 5705 5704 5703 5702 5701
5755 5751 5746 5744 5743 5741 5739 5737 5736 5734 5733 5732 5730 5729 5728 5726 5725 5723 5722 5721 5720 5719 5718 5717 5715 5714 5713 5712 5711 5711 5711 5710 5710 5708 5706 5704 5703 5702 5700 5699 5698 5697 5696
5750 5746 5742 5739 5738 5736 5735 5733 5732 5730 5729 5728 5726 5725 5724 5722 5721 5719 5718 5717 5716 5715 5713 5712 5711 5710 5708 5708 5707 5707 5707 5706 5705 5704 5701 5699 5698 5697 5696 5694 5693 5692 5691
5743 5740 5738 5736 5734 5732 5730 5729 5727 5726 5725 5723 5722 5721 5720 5718 5717 5715 5713 5712 5711 5710 5709 5708 5707 5705 5704 5703 5703 5703 5702 5702 5701 5699 5696 5694 5693 5692 5690 5689 5688 5686 5685
5735 5735 5734 5733 5731 5728 5726 5724 5723 5722 5721 5719 5718 5717 5716 5714 5713 5711 5710 5708 5707 5706 5705 5704 5702 5701 5700 5699 5699 5699 5698 5697 5696 5693 5691 5689 5688 5687 5685 5684 5682 5681 5680
5727 5729 5730 5729 5727 5725 5723 5720 5719 5718 5717 5716 5714 5713 5712 5711 5710 5708 5706 5705 5703 5702 5701 5699 5698 5697 5696 5695 5695 5694 5694 5693 5691 5688 5686 5684 5683 5681 5680 5678 5677 5675 5674
5723 5724 5725 5725 5723 5722 5720 5718 5716 5715 5714 5713 5712 5710 5709 5708 5706 5704 5702 5700 5699 5698 5696 5695 5694 5694 5693 5692 5691 5690 5689 5688 5685 5683 5680 5679 5677 5676 5674 5673 5671 5670 5668
5718 5719 5720 5720 5719 5718 5717 5715 5714 5713 5711 5710 5708 5707 5706 5705 5703 5701 5699 5697 5696 5694 5693 5692 5691 5690 5689 5688 5687 5686 5684 5683 5680 5677 5675 5674 5672 5670 5669 5667 5665 5664 5662
5713 5713 5714 5715 5714 5713 5712 5711 5710 5709 5708 5706 5705 5703 5702 5701 5699 5697 5696 5694 5692 5691 5689 5688 5687 5686 5685 5683 5682 5681 5679 5677 5675 5672 5670 5668 5666 5664 5663 5661 5659 5658 5656
5709 5709 5709 5710 5709 5708 5707 5707 5706 5705 5703 5702 5700 5699 5698 5697 5695 5693 5692 5689 5688 5686 5685 5683 5682 5681 5680 5678 5676 5675 5673 5672 5670 5667 5664 5662 5659 5657 5656 5654 5653 5651 5649
5705 5705 5704 5704 5704 5703 5702 5702 5701 5699 5698 5696 5695 5694 5693 5692 5690 5688 5686 5684 5683 5681 5680 5678 5677 5675 5674 5672 5670 5669 5667 5665 5664 5661 5659 5656 5653 5651 5649 5647 5646 5644 5642
5701 5699 5699 5699 5699 5698 5697 5696 5695 5694 5692 5691 5689 5689 5687 5686 5685 5683 5681 5678 5677 5675 5674 5672 5671 5668 5666 5664 5663 5662 5660 5659 5657 5655 5653 5650 5647 5645 5642 5640 5638 5636 5635
5696 5694 5692 5693 5693 5692 5691 5690 5689 5687 5686 5685 5684 5682 5681 5680 5679 5677 5675 5673 5671 5669 5667 5666 5664 5662 5659 5657 5656 5654 5653 5652 5650 5648 5646 5644 5641 5638 5635 5633 5630 5628 5627
5691 5689 5687 5687 5687 5686 5685 5683 5682 5680 5679 5678 5677 5676 5675 5674 5673 5671 5669 5667 5665 5663 5661 5659 5657 5655 5653 5650 5649 5646 5645 5644 5643 5641 5639 5636 5634 5631 5629 5626 5623 5621 5619
5684 5683 5681 5680 5680 5679 5677 5675 5673 5671 5671 5671 5670 5669 5668 5667 5666 5664 5663 5661 5659 5657 5655 5653 5650 5647 5644 5642 5639 5636 5636 5637 5635 5633 5631 5629 5626 5624 5621 5618 5615 5613 5611
5677 5677 5676 5675 5674 5674 5672 5671 5669 5666 5664 5664 5664 5662 5661 5660 5659 5658 5656 5654 5652 5650 5648 5646 5643 5639 5636 5635 5631 5627 5624 5624 5625 5625 5623 5620 5618 5616 5613 5610 5608 5605 5602
5669 5670 5671 5669 5668 5667 5666 5664 5661 5658 5657 5655 5655 5654 5654 5653 5652 5651 5649 5647 5645 5643 5641 5639 5637 5633 5628 5626 5625 5621 5616 5613 5613 5614 5614 5612 5609 5607 5604 5602 5600 5597 5594
5663 5663 5663 5663 5662 5660 5659 5658 5655 5652 5650 5649 5649 5648 5647 5646 5645 5643 5641 5640 5638 5636 5634 5632 5630 5627 5623 5619 5617 5615 5612 5609 5604 5601 5602 5602 5600 5597 5595 5593 5590 5588 5585
5655 5655 5655 5655 5655 5654 5653 5651 5649 5647 5646 5644 5642 5641 5639 5638 5637 5636 5634 5632 5630 5629 5627 5625 5623 5620 5617 5613 5610 5607 5604 5601 5598 5592 5589 5589 5589 5588 5586 5583 5581 5578 5575
5646 5646 5647 5647 5647 5646 5645 5644 5642 5641 5639 5637 5635 5633 5632 5630 5629 5628 5626 5625 5623 5621 5619 5617 5615 5613 5610 5607 5603 5600 5596 5592 5588 5584 5580 5578 5577 5577 5576 5574 5571 5568 5564